[[{"header":{"parameterUnit":"m.s-1","parameterCategory":1,"la1":30.2991,"la2":30.254,"lo1":-89.0895,"lo2":-89.0444,"dy":0.0017,"dx":0.0017,"nx":28,"ny":28,"refTime":"2025-12-20T09:00:00:Z","depth":0,"parameterNumber":2,"parameterNumberName":"U-component_of_WINDS"},"data":[0,0,0,0,0,0,0,0,0,0,0,0,0,0,0,0,0,0,0,0,0,0,0,0,0,0,0,0,0,0,0,0,0,0,0,0,0,0,0,0,0,0,0,0,0,0,0,0,0,0,0,0,0,0,0,0,0,0,-2.2685,-2.2686,0,-2.2768,-2.2769,-2.277,-2.2753,-2.2751,-2.275,-2.2748,-2.2835,-2.2839,-2.2842,0,0,0,0,0,0,0,0,0,0,0,0,0,-2.2515,-2.2518,-2.2685,-2.2686,-2.2687,-2.2768,-2.2769,-2.277,-2.2753,-2.2751,-2.2749,-2.2748,-2.2834,-2.2838,-2.2843,0,0,0,0,0,0,0,0,0,0,0,0,0,-2.2592,-2.2519,-2.2685,-2.2689,-2.269,-2.2768,-2.2769,-2.2771,-2.2754,-2.2751,-2.2749,-2.2747,-2.2832,-2.2838,-2.2843,-2.2924,0,0,-2.286,-2.2863,0,0,0,0,0,0,0,0,-2.2588,-2.2599,-2.2687,-2.2688,-2.269,-2.2748,-2.2741,-2.2822,-2.2754,-2.2729,-2.2748,-2.2746,-2.2808,-2.2815,-2.2836,-2.2928,-2.2932,-2.2861,-2.2864,-2.2867,-2.2868,0,0,0,0,0,0,0,-2.2583,-2.2595,-2.2718,-2.2688,-2.269,-2.2687,-2.2695,-2.2756,-2.2781,-2.2731,-2.273,-2.274,-2.2808,-2.2831,-2.2838,-2.2933,-2.2861,-2.2866,-2.2869,-2.2871,-2.3096,-2.3099,0,0,0,0,0,0,-2.2576,-2.2591,-2.2716,-2.2721,-2.2632,-2.2692,-2.2701,-2.2732,-2.278,-2.2785,-2.2742,-2.2739,-2.2822,-2.2831,-2.2841,-2.2939,-2.2867,-2.2872,-2.2875,-2.3094,-2.3097,-2.3099,0,0,0,0,0,0,-2.2572,-2.2587,-2.2712,-2.2655,-2.2671,-2.2697,-2.2731,-2.2734,-2.2757,-2.2788,-2.2792,-2.276,-2.2821,-2.2833,-2.2903,-2.2942,-2.2874,-2.288,-2.309,-2.3094,-2.3098,-2.3135,0,0,0,0,0,0,-2.2567,-2.2586,-2.2616,-2.2656,-2.2674,-2.2773,-2.2734,-2.2738,-2.2766,-2.2763,-2.2806,-2.2811,-2.282,-2.2895,-2.2909,-2.2948,-2.2884,-2.3087,-2.3092,-2.3097,-2.313,-2.314,-2.3147,0,0,0,0,0,-2.2561,-2.2623,-2.2618,-2.2633,-2.2712,-2.2775,-2.2785,-2.2793,-2.2769,-2.28,-2.2821,-2.281,-2.2935,-2.2903,-2.2918,-2.2959,-2.3085,-2.3091,-2.3096,-2.3127,-2.3138,-2.3147,0,0,0,0,0,0,-2.2587,-2.2629,-2.2623,-2.2699,-2.2734,-2.2772,-2.2811,-2.2805,-2.2847,-2.2843,-2.2852,-2.2862,-2.2933,-2.2953,-2.2916,-2.304,-2.3007,-2.3016,-2.3024,-2.3035,-2.3044,-2.3037,-2.2889,0,0,0,0,0,-2.2602,-2.2648,-2.2682,-2.2747,-2.2764,-2.2785,-2.2812,-2.2816,-2.2852,-2.2866,-2.2892,-2.2928,-2.2975,-2.3007,-2.3052,-2.3134,-2.3143,-2.317,-2.3178,-2.3185,-2.3193,-2.3238,-2.325,-2.3119,-2.3119,-2.3119,0,0,-2.2633,-2.2661,-2.269,-2.2753,-2.278,-2.2829,-2.2797,-2.285,-2.2886,-2.2875,-2.2942,-2.2963,-2.3004,-2.308,-2.3115,-2.3099,-2.3231,-2.3193,-2.3198,-2.3202,-2.3245,-2.3258,-2.3269,-2.3123,-2.3122,-2.3121,0,0,-2.2714,-2.274,-2.2796,-2.2824,-2.2865,-2.2878,-2.2892,-2.2932,-2.2944,-2.3012,-2.3005,-2.3049,-2.3131,-2.316,-2.3186,-2.3279,-2.3271,-2.3294,-2.3338,-2.3382,-2.3393,-2.3402,-2.3436,-2.3447,-2.3302,-2.3302,-2.3302,0,-2.2747,-2.2819,-2.2826,-2.288,-2.2908,-2.29,-2.2958,-2.2985,-2.3039,-2.3059,-2.304,-2.3143,-2.317,-2.3253,-2.3276,-2.3297,-2.3314,-2.3289,-2.3391,-2.34,-2.3409,-2.3441,-2.3453,-2.3304,-2.3304,-2.3304,-2.3304,0,-2.2858,-2.2908,-2.295,-2.3002,-2.3035,-2.309,-2.3107,-2.314,-2.3141,-2.3156,-2.3227,-2.3259,-2.3311,-2.3331,-2.3333,-2.3415,-2.3404,-2.3388,-2.3354,-2.3424,-2.3454,-2.3466,-2.3308,-2.3307,-2.3306,-2.3306,0,0,-2.2957,-2.3012,-2.3027,-2.3051,-2.3096,-2.3136,-2.3192,-2.3242,-2.327,-2.3309,-2.3356,-2.3426,-2.3411,-2.3441,-2.3446,-2.3485,-2.3557,-2.3464,-2.3465,-2.348,-2.3651,-2.3662,-2.3676,-2.3552,-2.3555,-2.3557,-2.3647,0,-2.3042,-2.3139,-2.3148,-2.3236,-2.3283,-2.3276,-2.3325,-2.3358,-2.3375,-2.3418,-2.3437,-2.3486,-2.3463,-2.3481,-2.3519,-2.354,-2.3591,-2.3534,-2.3597,-2.3599,-2.3586,-2.3692,-2.3704,-2.3788,-2.3659,-2.3661,-2.3662,0,-2.3153,-2.3194,-2.3286,-2.3326,-2.3346,-2.3389,-2.3437,-2.3478,-2.3516,-2.3526,-2.3559,-2.3559,-2.3618,-2.3582,-2.3664,-2.3624,-2.3651,-2.3666,-2.3669,-2.3675,-2.3634,-2.37,-2.3814,-2.3827,-2.3681,-2.368,-2.3678,0,-2.3216,-2.3294,-2.336,-2.338,-2.3428,-2.3459,-2.348,-2.3516,-2.3546,-2.3588,-2.3608,-2.3656,-2.3683,-2.3721,-2.3735,-2.3707,-2.3815,-2.3781,-2.3825,-2.3825,-2.3848,-2.3846,-2.3967,-2.3866,-2.3865,-2.3865,-2.3865,0,-2.3309,-2.3366,-2.3388,-2.3429,-2.3492,-2.3503,-2.3566,-2.3586,-2.3618,-2.3663,-2.3661,-2.3703,-2.3719,-2.3764,-2.3775,-2.3841,-2.3853,-2.3863,-2.3865,-2.3863,-2.3861,-2.388,-2.3874,-2.3868,-2.3868,-2.3867,-2.3866,0,-2.339,-2.3407,-2.3478,-2.3517,-2.3528,-2.3574,-2.3608,-2.3647,-2.3663,-2.372,-2.3734,-2.376,-2.3813,-2.383,-2.3895,-2.3903,-2.3979,-2.3977,-2.3966,-2.3966,-2.4009,-2.4005,-2.4146,-2.4166,-2.4051,-2.4053,-2.4053,0,-2.3448,-2.3491,-2.3535,-2.3565,-2.3587,-2.3635,-2.3665,-2.3678,-2.371,-2.3758,-2.3792,-2.3844,-2.3887,-2.3972,-2.3997,-2.4047,-2.4045,-2.4091,-2.4052,-2.4049,-2.4046,-2.4043,-2.4047,-2.4098,-2.41,-2.4101,-2.4101,0,-2.355,-2.3556,-2.36,-2.3647,-2.3684,-2.3722,-2.3759,-2.3783,-2.3801,-2.3838,-2.3891,-2.3925,-2.399,-2.4043,-2.4093,-2.4116,-2.4112,-2.4114,-2.4126,-2.4124,-2.4116,-2.4121,-2.3985,-2.411,-2.4109,-2.4108,-2.4108,-2.4108,-2.3621,-2.3659,-2.3696,-2.3745,-2.3774,-2.3809,-2.3848,-2.3869,-2.3914,-2.3968,-2.3973,-2.4031,-2.407,-2.4137,-2.4163,-2.4209,-2.4196,-2.4215,-2.422,-2.4224,-2.4227,-2.4109,-2.4219,-2.4219,-2.4218,-2.4218,-2.4218,0,-2.3722,-2.3746,-2.3791,-2.3842,-2.3881,-2.3874,-2.3914,-2.3947,-2.3998,-2.4034,-2.4076,-2.4139,-2.419,-2.4219,-2.4271,-2.4302,-2.4302,-2.4316,-2.4313,-2.4318,-2.4236,-2.422,-2.4315,-2.4315,-2.4315,-2.4315,-2.4315,-2.4315,-2.3779,-2.3844,-2.3855,-2.3935,-2.3958,-2.4015,-2.4039,-2.4071,-2.41,-2.4169,-2.4211,-2.423,-2.4264,-2.4318,-2.4365,-2.4372,-2.4391,-2.4406,-2.4412,-2.4334,-2.4324,-2.4315,-2.4299,-2.441,-2.441,-2.4491,-2.4491,-2.4492]},{"header":{"parameterUnit":"m.s-1","parameterCategory":1,"la1":30.2991,"la2":30.254,"lo1":-89.0895,"lo2":-89.0444,"dy":0.0017,"dx":0.0017,"nx":28,"ny":28,"refTime":"2025-12-20T09:00:00:Z","depth":0,"parameterNumber":3,"parameterNumberName":"V-component_of_WINDS"},"data":[0,0,0,0,0,0,0,0,0,0,0,0,0,0,0,0,0,0,0,0,0,0,0,0,0,0,0,0,0,0,0,0,0,0,0,0,0,0,0,0,0,0,0,0,0,0,0,0,0,0,0,0,0,0,0,0,0,0,0.8294,0.8295,0,0.8299,0.8299,0.8299,0.8323,0.8324,0.8324,0.8325,0.8328,0.8328,0.8327,0,0,0,0,0,0,0,0,0,0,0,0,0,0.8307,0.8307,0.8294,0.8295,0.8295,0.8299,0.8299,0.8299,0.8323,0.8324,0.8325,0.8325,0.8328,0.8328,0.8327,0,0,0,0,0,0,0,0,0,0,0,0,0,0.8306,0.8307,0.8294,0.8307,0.8308,0.8299,0.8299,0.8299,0.8323,0.8324,0.8325,0.8326,0.8329,0.8328,0.8327,0.8305,0,0,0.8325,0.8325,0,0,0,0,0,0,0,0,0.8306,0.8305,0.8305,0.8306,0.8308,0.8311,0.8305,0.8301,0.8323,0.8317,0.8325,0.8326,0.8322,0.8322,0.8321,0.8305,0.8305,0.8325,0.8325,0.8324,0.8324,0,0,0,0,0,0,0,0.8306,0.8305,0.8296,0.8305,0.8307,0.8313,0.8313,0.8304,0.8315,0.8318,0.832,0.832,0.8323,0.8321,0.8321,0.8306,0.8325,0.8324,0.8324,0.8324,0.8274,0.8273,0,0,0,0,0,0,0.8304,0.8305,0.8296,0.8296,0.8309,0.8312,0.8313,0.8309,0.8315,0.8316,0.8319,0.8321,0.8322,0.8322,0.8321,0.8297,0.8324,0.8324,0.8323,0.8275,0.8274,0.8273,0,0,0,0,0,0,0.8304,0.8303,0.8296,0.8301,0.8301,0.8311,0.8307,0.8309,0.8307,0.8316,0.8318,0.8316,0.8323,0.8322,0.8309,0.8297,0.8323,0.8323,0.8276,0.8274,0.8273,0.8247,0,0,0,0,0,0,0.8305,0.8303,0.8295,0.8301,0.83,0.8284,0.8306,0.8308,0.8306,0.8309,0.8313,0.8315,0.8323,0.831,0.8309,0.8296,0.8322,0.8277,0.8275,0.8274,0.8249,0.8245,0.8241,0,0,0,0,0,0.8305,0.8287,0.8294,0.8293,0.829,0.8283,0.8283,0.8294,0.8305,0.8297,0.8303,0.8314,0.8299,0.8309,0.8307,0.8295,0.8278,0.8276,0.8274,0.825,0.8245,0.8241,0,0,0,0,0,0,0.8278,0.8288,0.8296,0.8279,0.828,0.8287,0.8277,0.8288,0.8285,0.8288,0.8301,0.8302,0.8287,0.829,0.8301,0.8274,0.829,0.8288,0.8273,0.8268,0.8265,0.8264,0.8322,0,0,0,0,0,0.827,0.8264,0.8273,0.8257,0.8257,0.8267,0.8264,0.8273,0.8274,0.8275,0.8279,0.828,0.8276,0.8272,0.8268,0.8249,0.8251,0.824,0.8236,0.8233,0.8231,0.8222,0.8217,0.8266,0.8266,0.8266,0,0,0.8254,0.8258,0.8253,0.8251,0.8253,0.8247,0.8267,0.8259,0.8254,0.8273,0.8262,0.8265,0.8267,0.8252,0.8245,0.8253,0.8218,0.823,0.8228,0.8227,0.8219,0.8215,0.8211,0.8265,0.8265,0.8265,0,0,0.822,0.8223,0.8211,0.8212,0.8215,0.8222,0.8219,0.8225,0.8228,0.8217,0.8232,0.8226,0.8218,0.8219,0.8219,0.8187,0.8198,0.8186,0.8166,0.8157,0.8153,0.815,0.8139,0.8135,0.8183,0.8183,0.8183,0,0.8199,0.819,0.8203,0.8194,0.8193,0.8211,0.8199,0.82,0.8201,0.82,0.8209,0.82,0.8202,0.8188,0.818,0.8179,0.8177,0.8185,0.8153,0.8149,0.8147,0.8137,0.8133,0.8182,0.8182,0.8182,0.8182,0,0.8165,0.8158,0.8148,0.8149,0.8147,0.8137,0.8148,0.8144,0.8153,0.8159,0.8148,0.8152,0.815,0.8147,0.8155,0.8134,0.8139,0.815,0.8167,0.814,0.8131,0.8128,0.818,0.818,0.8181,0.8181,0,0,0.8114,0.8123,0.8119,0.8121,0.8126,0.8121,0.8112,0.811,0.8107,0.8108,0.8101,0.8094,0.8105,0.8104,0.8113,0.8105,0.8081,0.8117,0.8118,0.8111,0.8059,0.8051,0.8046,0.8089,0.8088,0.8087,0.8059,0,0.8082,0.8067,0.8079,0.8062,0.8056,0.8074,0.8066,0.8068,0.8074,0.807,0.8076,0.8072,0.8086,0.8086,0.8079,0.8085,0.8071,0.8088,0.8082,0.8082,0.8082,0.8041,0.8032,0.8006,0.8056,0.8055,0.8055,0,0.8044,0.8043,0.8026,0.8033,0.8031,0.8024,0.8024,0.802,0.8024,0.8028,0.8028,0.804,0.8031,0.8048,0.8037,0.8048,0.8047,0.805,0.8049,0.8049,0.8067,0.8041,0.7997,0.7993,0.8049,0.805,0.805,0,0.8009,0.8004,0.7993,0.7994,0.8002,0.7997,0.8,0.8004,0.8003,0.8003,0.8003,0.8001,0.8001,0.8,0.8011,0.8021,0.7999,0.8016,0.8003,0.8003,0.7997,0.7998,0.7953,0.7996,0.7996,0.7996,0.7996,0,0.7973,0.7962,0.7978,0.7972,0.796,0.7973,0.7961,0.7966,0.797,0.7965,0.798,0.7975,0.7989,0.7986,0.7994,0.7984,0.7984,0.7988,0.799,0.7987,0.7986,0.7986,0.7988,0.7995,0.7995,0.7995,0.7996,0,0.7932,0.7943,0.7932,0.7941,0.7943,0.7934,0.7942,0.7937,0.7944,0.7937,0.7937,0.7948,0.7945,0.7955,0.7953,0.7959,0.7945,0.7951,0.7944,0.7946,0.7933,0.7934,0.7887,0.7882,0.7927,0.7927,0.7926,0,0.7909,0.79,0.7909,0.7907,0.791,0.7906,0.7905,0.7918,0.7917,0.7921,0.7915,0.7913,0.7912,0.7907,0.7915,0.7914,0.7919,0.7903,0.7919,0.7916,0.792,0.792,0.792,0.7899,0.7899,0.7898,0.7898,0,0.7866,0.7872,0.787,0.787,0.7869,0.787,0.7872,0.7869,0.7884,0.7881,0.7879,0.7878,0.7877,0.7875,0.7876,0.788,0.7891,0.7893,0.789,0.7886,0.7883,0.7886,0.7935,0.7894,0.7894,0.7895,0.7895,0.7895,0.7833,0.7827,0.7833,0.7831,0.7834,0.7835,0.7831,0.7838,0.7836,0.7837,0.7845,0.7841,0.7845,0.7848,0.7851,0.7848,0.7856,0.7851,0.785,0.7849,0.7847,0.7884,0.7848,0.7848,0.7848,0.7848,0.7849,0,0.7792,0.7797,0.7795,0.7797,0.7796,0.7807,0.781,0.7808,0.7805,0.7808,0.7808,0.7805,0.7804,0.7812,0.7812,0.7808,0.7814,0.7808,0.7809,0.7809,0.784,0.7843,0.7804,0.7804,0.7804,0.7804,0.7804,0.7804,0.777,0.7761,0.7768,0.7761,0.7766,0.7762,0.7763,0.7765,0.7768,0.7764,0.7764,0.7769,0.7775,0.7776,0.7776,0.7778,0.7778,0.777,0.7774,0.7803,0.7807,0.7811,0.7814,0.777,0.777,0.7744,0.7744,0.7744]}]]